Location: Mason Neck State Park
(38.6428°N, 77.1981°W)
Time: 06:52:17
(UTC-04:00)

Daily predictions for brighter satellites

Satellite Brightness Start Highest point End
(mag) Time Altitude Azimuth Time Altitude Azimuth Time Altitude Azimuth
ATLAS 5 CENTAUR R/B 4.1 20:48:54 10° N 20:53:13 20° NE 20:57:49 10° E
Cosmos 1939 Rocket 3.4 20:50:47 10° SE 20:54:42 43° ENE 20:58:39 10° N
Cosmos 1933 3.4 20:51:06 10° N 20:55:09 89° WSW 20:59:09 10° S
COSMOS 2487 3.5 20:52:42 10° NNW 20:56:08 47° WSW 20:59:32 10° S
Meteor 2-10 Rocket 4.0 20:54:55 10° NNW 21:00:46 79° W 21:06:31 10° S
Cosmos 1937 Rocket 3.6 20:55:49 10° SSW 21:00:57 83° WNW 21:06:08 10° NNE
OE (NEXTSAT) 4.4 20:57:53 10° WNW 21:01:26 78° SSW 21:04:58 10° SE
H-2A ROCKET BODY 2.9 20:59:33 10° SSW 21:01:28 17° SSE 21:04:55 10° ESE
Aureole 3 4.4 21:00:05 10° SE 21:02:01 16° E 21:03:54 10° NE
Okean 1-7 4.4 20:58:49 10° NNE 21:02:18 22° ENE 21:05:45 10° SE
GPS 2-04 Rocket1 2.7 21:00:09 10° WSW 21:03:51 53° S 21:07:22 10° E
H-2A R/B 4.1 21:03:07 10° E 21:05:24 13° ENE 21:07:40 10° NE
Meteor 1-29 3.6 21:11:12 10° NNE 21:14:28 36° E 21:17:42 10° SSE
Cosmos 1703 Rocket 4.0 21:10:49 10° N 21:15:04 45° E 21:19:15 10° SSE
Meteor 2-3 Rocket 3.7 21:12:52 10° S 21:18:36 85° E 21:24:18 10° N
SJ-11-01 4.3 21:15:32 10° SSE 21:20:15 84° E 21:25:00 10° N
Cosmos 1408 3.8 21:18:02 12° SE 21:20:42 25° E 21:23:48 10° NNE
Cosmos 2082 Rocket 4.2 21:16:45 10° NW 21:21:23 26° WSW 21:26:01 10° SSW
Meteor 1-26 Rocket 4.4 21:16:34 10° N 21:22:15 81° W 21:27:59 10° S
Milstar 3 4.3 21:11:25 10° SW 21:23:07 36° S 21:29:45 12° ESE
Cosmos 1782 3.7 21:23:11 10° NNE 21:26:46 31° ENE 21:29:11 17° SE
ERS-1 Rocket 3.5 21:23:31 13° SE 21:27:41 43° ENE 21:32:25 10° N
Cosmos 2344 4.0 21:23:40 10° S 21:30:37 38° ESE 21:37:54 10° NE
Cosmos 1825 3.0 21:28:21 15° SSE 21:30:55 32° E 21:34:18 10° NNE
Cosmos 1869 Rocket 3.5 21:28:08 10° S 21:32:24 63° E 21:36:43 10° NNE
BREEZE-M DEB (TANK) 4.3 21:32:30 10° NNW 21:35:21 30° NNE 21:43:29 10° E
Helios 1B rocket 2.5 21:33:44 10° N 21:37:51 81° WNW 21:41:56 10° SSW
Cosmos 2084 3.2 21:35:01 10° NNW 21:38:50 68° NE 21:41:16 22° SE
USA 215 3.8 21:35:07 13° ESE 21:40:42 50° NE 21:46:59 10° NW
MetOp-A 4.4 21:40:51 18° SE 21:44:44 54° ENE 21:49:57 10° N
Cosmos 1862 4.3 21:43:53 23° ESE 21:45:07 27° E 21:48:32 10° NNE
Lacrosse 4 Rocket 2.8 21:43:27 10° N 21:47:20 28° NE 21:49:28 19° E
Cosmos 2221 Rocket 3.5 21:45:13 10° N 21:49:40 78° E 21:52:53 19° SSE
ISS -2.0 21:49:02 10° W 21:52:01 33° NNW 21:55:02 10° NE
Cosmos 1943 Rocket 2.1 21:46:40 10° S 21:52:12 67° ESE 21:57:45 10° NNE
Terra 3.7 21:54:15 13° E 21:55:45 15° ENE 21:58:29 10° NNE
Cosmos 1634 Rocket 4.3 21:53:43 10° NNW 21:59:58 67° W 22:06:12 10° S
deb Kosmos-1763 4.4 21:56:53 10° N 22:00:34 50° ENE 22:01:44 35° ESE
Cosmos 2263 4.3 21:55:55 10° SSW 22:01:42 81° WNW 22:07:28 10° NNE
Tiangong 2 1.9 21:59:52 10° W 22:02:52 37° SSW 22:03:23 35° S
Cosmos 468 4.5 21:57:45 10° NNW 22:03:02 88° WSW 22:06:14 24° SSE
NOAA 11 4.2 21:58:58 18° SSE 22:03:06 87° WSW 22:08:37 10° NNW
SPOT 1/Viking Rocket 4.2 22:00:52 26° ESE 22:03:11 39° ENE 22:08:00 10° N
CENTAUR R/B 2.5 21:58:45 10° SSW 22:04:41 86° WNW 22:11:29 10° NNE
Cosmos 372 Rocket 3.8 22:00:05 10° SSW 22:05:13 83° ESE 22:10:21 10° NNE
Cosmos 1340 2.7 22:03:57 10° N 22:07:42 60° E 22:08:45 41° SE
BREEZE M DEB (TANK) 4.4 21:54:09 10° SW 22:09:09 79° NW 22:13:14 10° NE
Nadezhda 4 Rocket 4.3 22:06:49 25° SSE 22:10:09 48° E 22:16:02 10° NNE
COSMOS 2455 4.0 22:04:36 10° SW 22:10:19 45° NW 22:16:05 10° NNE
SPOT 5 3.2 22:08:10 28° SE 22:10:55 64° ENE 22:16:11 10° N
CZ-4B DEB 4.5 22:09:44 15° SSW 22:11:27 26° W 22:13:58 10° NW
Cosmos 1269 Rocket 4.0 22:07:12 10° NNW 22:12:30 72° ENE 22:14:56 32° SSE
Cosmos 2369 Rocket 3.3 22:08:33 10° SW 22:13:56 45° WNW 22:19:24 10° N
Cosmos 1125 Rocket 3.9 22:10:34 10° SSW 22:15:46 66° WNW 22:21:00 10° NNE
H-2A R/B 4.1 22:16:52 13° ENE 22:17:09 13° ENE 22:19:03 10° NE
YAOGAN 11 4.2 22:16:37 38° SE 22:18:17 69° ENE 22:22:47 10° N
Cosmos 1833 4.3 22:15:56 10° NNW 22:21:42 63° ENE 22:24:00 36° SE
Cosmos 1606 3.3 22:18:30 10° NNW 22:22:11 53° W 22:23:47 30° SSW
Lacrosse 5 rocket 3.4 22:21:31 10° W 22:24:33 25° NW 22:27:38 10° NNE
USA 245 4.5 22:21:01 27° SSE 22:24:36 89° WSW 22:31:01 10° NNW
Shenzhou-11 Module 4.3 22:24:04 10° W 22:25:36 17° SW 22:25:36 17° SW
Cosmos 2279 Rocket 4.4 22:27:36 10° NNW 22:33:46 61° W 22:38:03 20° SSW
Cosmos 1908 Rocket 4.3 22:38:32 37° ENE 22:38:32 37° ENE 22:42:15 10° NNE
ATLAS 5 CENTAUR R/B 2.4 22:32:31 10° NW 22:38:38 88° SW 22:41:08 41° SSE
Cosmos 1867 4.3 22:35:25 10° NNW 22:40:33 40° NE 22:42:05 33° E
Meteor 1-27 Rocket 3.8 22:35:11 10° NNW 22:40:56 78° W 22:43:17 37° S
GPS 2-04 Rocket1 3.9 22:39:55 10° W 22:42:02 27° WSW 22:42:02 27° WSW
H-2A R/B 2.1 22:42:10 42° S 22:44:05 83° WSW 22:49:28 10° NNW
Cosmos 494 Rocket 4.2 22:43:30 10° N 22:48:37 53° ENE 22:49:23 48° E
Intercosmos 25 Rocket 4.0 22:42:34 10° N 22:49:38 88° E 22:50:46 55° S
ARGOS 3.8 22:47:37 27° SSW 22:50:10 48° W 22:55:22 10° NNW
Cosmos 1656 Rocket 3.5 22:48:00 29° SSW 22:50:51 89° WNW 22:56:25 10° NNE
Cosmos 1733 Rocket 4.0 23:01:46 32° SW 23:03:11 43° W 23:07:19 10° N
Sich 1 Rocket 3.6 23:12:21 73° NNE 23:12:21 73° NNE 23:16:23 10° N
Cosmos 1655 Rocket 4.2 23:13:17 48° E 23:13:37 48° E 23:19:33 10° NNE
Landsat 7 4.2 23:17:28 53° WSW 23:17:51 55° W 23:22:32 10° NNW
Meteor 1-14 Rocket 4.2 23:22:20 68° S 23:23:10 88° E 23:29:01 10° N
USA 215 3.7 23:22:28 43° SSW 23:23:40 47° SW 23:29:58 10° WNW
Meteor 2-20 Rocket 4.5 23:22:12 49° SSW 23:23:54 74° W 23:30:03 10° N
Cosmos 2227 Rocket 3.5 23:19:15 10° N 23:23:58 26° ENE 23:24:44 25° ENE
CZ-2C R/B 4.4 23:20:48 10° NE 23:22:58 18° ENE 23:22:58 18° ENE
Lacrosse 4 Rocket 3.0 23:22:11 10° NW 23:25:48 28° WSW 23:25:48 28° WSW
Cosmos 2026 Rocket 3.8 23:28:05 68° S 23:28:56 86° E 23:35:13 10° N
Cosmos 1975 Rocket 3.8 23:24:35 10° N 23:28:04 48° NNE 23:28:04 48° NNE
ISS -0.3 23:28:34 10° NNW 23:29:17 11° NNW 23:30:00 10° N
Cosmos 2219 3.1 23:24:19 10° NNW 23:30:05 83° ENE 23:30:23 79° ESE
SL-19 R/B 4.5 23:26:54 10° NNE 23:32:59 83° WNW 23:34:17 58° SSW
Terra 2.2 23:33:08 55° W 23:33:08 55° W 23:37:41 10° NNW
ATLAS CENTAUR R/B 2.8 23:36:09 32° N 23:36:09 32° N 23:38:23 10° NNE
Cosmos 1812 4.1 23:30:52 10° N 23:33:20 38° N 23:33:20 38° N
CARTOSAT-1 4.5 23:36:19 43° WNW 23:36:19 43° WNW 23:39:58 10° NNW
BREEZE-M DEB (TANK) 3.1 23:36:02 81° S 23:36:11 82° SE 23:48:26 10° ENE
Cosmos 2251 Rocket 3.7 23:35:57 10° NNW 23:40:56 60° W 23:40:56 60° W
Cosmos 1378 Rocket 4.5 23:38:21 10° NNW 23:42:02 44° WNW 23:42:02 44° WNW
SME Rocket 4.2 23:43:23 62° S 23:44:36 79° WSW 23:53:45 10° NNW
Cosmos 1417 Rocket 4.3 23:39:32 10° N 23:45:51 80° E 23:46:11 77° ESE
Cosmos 1428 Rocket 4.3 23:46:28 79° SSE 23:46:50 83° E 23:53:10 10° N
ARGOS Delta rocket 4.4 23:42:55 10° N 23:46:12 49° N 23:46:12 49° N
Meteor 2-11 Rocket 4.3 23:42:13 10° N 23:48:22 78° E 23:48:29 77° E
H-2A R/B 3.3 23:53:59 35° NW 23:53:59 35° NW 23:56:42 10° NNW
S3M 3.9 23:46:50 10° N 23:52:56 69° E 23:52:56 69° E
GEOS 3 Rocket 4.1 23:54:47 49° W 23:54:47 49° W 23:59:12 10° NW
